This is the latest recevied weather packets stored in our database for station/object N4ASP-13. If no packets are shown the sender has not sent any weather packets the latest 10 day(s).
| Time | Temp. | Humidity | Pressure | Rain* | Wind** | Luminosity | Snow |
|---|---|---|---|---|---|---|---|
| 1777988501 | 20° C | 51% | 1016.3 hPa | 0 mm | - | 707 W/m² | - |
| 1777988439 | 20° C | 50% | 1016.2 hPa | 0 mm | - | 684 W/m² | - |
| 1777988378 | 20° C | 51% | 1016.3 hPa | 0 mm | - | 698 W/m² | - |
| 1777988320 | 20° C | 49% | 1016.2 hPa | 0 mm | - | 679 W/m² | - |
| 1777988257 | 20° C | 50% | 1016.2 hPa | 0 mm | - | 679 W/m² | - |
| 1777988194 | 20° C | 51% | 1016.2 hPa | 0 mm | - | 673 W/m² | - |
| 1777988134 | 20° C | 52% | 1016.2 hPa | 0 mm | - | 642 W/m² | - |
| 1777988074 | 20° C | 52% | 1016.2 hPa | 0 mm | - | 643 W/m² | - |
| 1777988013 | 20° C | 52% | 1016.2 hPa | 0 mm | - | 680 W/m² | - |
| 1777987952 | 20° C | 50% | 1016.1 hPa | 0 mm | - | 670 W/m² | - |
| 1777987892 | 20° C | 52% | 1016.2 hPa | 0 mm | - | 677 W/m² | - |
| 1777987829 | 20° C | 52% | 1016.1 hPa | 0 mm | - | 673 W/m² | - |
| 1777987770 | 20° C | 53% | 1016.1 hPa | 0 mm | - | 670 W/m² | - |
| 1777987710 | 19.44° C | 51% | 1016.1 hPa | 0 mm | - | 666 W/m² | - |
| 1777987649 | 19.44° C | 51% | 1016.1 hPa | 0 mm | - | 661 W/m² | - |
| 1777987587 | 19.44° C | 51% | 1016.1 hPa | 0 mm | - | 652 W/m² | - |
| 1777987528 | 19.44° C | 54% | 1016.2 hPa | 0 mm | - | 654 W/m² | - |
| 1777987468 | 19.44° C | 52% | 1016.2 hPa | 0 mm | - | 647 W/m² | - |
| 1777987406 | 19.44° C | 53% | 1016.2 hPa | 0 mm | - | 631 W/m² | - |
| 1777987344 | 19.44° C | 53% | 1016.2 hPa | 0 mm | - | 573 W/m² | - |
| 1777987283 | 19.44° C | 52% | 1016.2 hPa | 0 mm | - | 624 W/m² | - |
| 1777987223 | 19.44° C | 51% | 1016.2 hPa | 0 mm | - | 619 W/m² | - |
| 1777987162 | 19.44° C | 52% | 1016.2 hPa | 0 mm | - | 621 W/m² | - |
| 1777987100 | 19.44° C | 53% | 1016.2 hPa | 0 mm | - | 615 W/m² | - |
| 1777987038 | 19.44° C | 51% | 1016.3 hPa | 0 mm | - | 606 W/m² | - |
* Rain latest hour (hover to see other rain measurements)
** Current wind speed in m/s (hover to see current wind gust speed)